ONEWEB-0040, 45147

Orbit data source: Space-Track

ONEWEB-0040, 45147 is a payload satellite owned by One Web (UK) in LEO that was launched on Thu, 06 Feb 2020 UTC via a SOYUZ-2-1B launch vehicle from the Tyuratam Missile And Space Complex (TTMTR). Payload-class satellites include a variety of spacecraft equipped with specific instruments for various scientific and technological missions. These include communications satellites like Starlink; space stations such as the ISS; scientific satellites like the Hubble; Earth observation satellites from companies like Planet Labs, Umbra, and HawkEye 360; GPS; miniature CubeSats for education and research; and military/defense satellites.

Loading next visibility...
Identifier
45147, 2020-008S
Orbit
LEO
Country
Flag of UKUK
Related business
Manufacturer
One Web
Mission
Operational Commercial Communications
Bus & Motor
ARROW, Unknown motor
Mass
148 kg wet, ~140 kg dry
Launch date (UTC)
2020-02-06 (6 years ago)
Launch vehicle
SOYUZ-2-1B
Launch site
Tyuratam Missile And Space Complex (TTMTR)
Object type
Payload
Rocket body
Debris
Shape & HBR
Trap Box + 2 Pan, 6.7 m
Radar Cross Section
3.464 m², Large (>1 m²)

Expand to show TLE details & history
Last TLE update: 19 hours ago

TLE from 19 hours ago
0 ONEWEB-0040
1 45147U 20008S   25287.25472755 -.00000171  00000-0 -52517-3 0  9996
2 45147  87.8754  85.3165 0001552  92.4837 267.6468 13.10375059275654
Epoch: 2025-10-14T06:06Z
TLE epoch observation values (Epoch: 2025-10-14T06:06:48.460Z)
Latitude
-0.00002°
Longitude
-29.4312°
Altitude
1,224.645 km
Speed
7.242 km/s
True Right ascension
05h 41m 15s
True Declination
0° 00' 00"
Sunlit
Object was in daylight at epoch
Visualization orbit readout
Latitude
Unknown
Longitude
Unknown
Altitude
Unknown
Speed
Unknown
Apparent Right ascension
Unknown
Apparent Declination
Unknown
Sunlit
N/A
Visualization observer readout
Local Sidereal Time
19:58:12
Azimuth
Unknown
Elevation
Unknown
Doppler factor
Unknown
Orbital elements
Apogee altitude
1,220.007 km
Perigee altitude
1,217.649 km
Semi-major axis
7,596.965 km
Eccentricity
0.00016
Inclination
87.8754°
RAAN
85.3165°
Arg. of periapsis
92.4837°
True anomaly
267.62903°
Mean anomaly
267.6468°
Eccentric anomaly
267.63792°
Mean motion
3.2778 °/min
Orbital period
109.83 mins
BSTAR
-0.00052517
Loading maneuver chart data...
Computing Atmospheric mass density...
Loading historical data...
Loading historical data...
Loading historical data...
Loading historical data...
Loading historical data...
Loading historical data...
Loading historical data...

Documentation

Showing up to 5 results
|